Szolnok, Hungary

2:44 AM CEST on May 26, 2017 (GMT +0200)
Szolnok

Weather History for LHSN - January, 2013

Change the Weather History Date:

Sunday, January 6, 2013

  Actual Average (LHBP) Record (LHBP)
Temperature  
Mean Temperature 32 °F -  
Max Temperature 35 °F 35 °F 53 °F (2014)
Min Temperature 28 °F 23 °F 6 °F (2017)
Degree Days  
Heating Degree Days 34    
Moisture  
Dew Point 26 °F    
Average Humidity 78    
Maximum Humidity 93    
Minimum Humidity 60    
Precipitation  
Precipitation 0.00 in - - ()
Sea Level Pressure  
Sea Level Pressure 30.07 in    
Wind  
Wind Speed 5 mph ()    
Max Wind Speed 9 mph    
Max Gust Speed -    
Visibility 4.1 miles    
Events Snow    
Averages and records for this station are not official NWS values.
T = Trace of Precipitation, MM = Missing Value Source: Averaged Metar Reports

Daily Weather History Graph

Daily Weather History Graph

Search for Another Location

Airport or City:

Trip Planner

Search our weather history database for the weather conditions in past years. The results will help you decide how hot, cold, wet, or windy it might be!

Date:

Astronomy

Jan. 06, 2013 Rise Set
Actual Time 7:24 AM CET 4:05 PM CET
Civil Twilight 6:49 AM CET 4:40 PM CET
Nautical Twilight 6:11 AM CET 5:18 PM CET
Astronomical Twilight 5:34 AM CET 5:55 PM CET
Moon 1:07 AM CET (1/6) 11:29 AM CET (1/6)
Length of Visible Light 9h 50m
Length of Day
8h 40m
Waning Crescent, 36% of the Moon is Illuminated
Jan 6
Waning Crescent
Jan 11
New
Jan 19
First Quarter
Jan 27
Full
Feb 3
Last Quarter

Hourly Weather History & Observations

Time (CET) Temp. Windchill Dew Point Humidity Pressure Visibility Wind Dir Wind Speed Gust Speed Precip Events Conditions
12:15 AM 33.8 °F 29.7 °F 24.8 °F 70% 30.12 in - WNW 4.5 mph - N/A   Clear
12:45 AM 33.8 °F 29.7 °F 23.0 °F 65% 30.12 in - WNW 4.5 mph - N/A   Clear
1:15 AM 35.6 °F 30.0 °F 24.8 °F 65% 30.12 in - NNW 6.7 mph - N/A   Clear
1:45 AM 35.6 °F 30.0 °F 23.0 °F 60% 30.12 in - NNW 6.7 mph - N/A   Clear
2:15 AM 35.6 °F 28.7 °F 23.0 °F 60% 30.12 in - NNW 8.9 mph - N/A   Clear
2:45 AM 33.8 °F 27.9 °F 23.0 °F 65% 30.12 in - NNW 6.7 mph - N/A   Clear
3:15 AM 32.0 °F 25.7 °F 23.0 °F 69% 30.12 in - NW 6.7 mph - N/A   Clear
3:45 AM 33.8 °F 27.9 °F 23.0 °F 65% 30.12 in - NW 6.7 mph - N/A   Clear
4:15 AM 33.8 °F 27.9 °F 23.0 °F 65% 30.12 in - NNW 6.7 mph - N/A   Clear
4:45 AM 32.0 °F 25.7 °F 23.0 °F 69% 30.12 in - NNW 6.7 mph - N/A   Clear
5:45 AM - - - N/A% - - West 6.7 mph - N/A   Clear
6:15 AM 28.4 °F 23.4 °F 23.0 °F 80% 30.12 in - NW 4.5 mph - N/A   Clear
6:45 AM 28.4 °F 23.4 °F 23.0 °F 80% 30.12 in - NW 4.5 mph - N/A   Clear
7:15 AM 28.4 °F - 23.0 °F 80% 30.15 in - WSW 2.2 mph - N/A   Clear
7:45 AM 28.4 °F - 23.0 °F 80% 30.15 in - West 2.2 mph - N/A   Clear
8:15 AM 30.2 °F 25.5 °F 23.0 °F 75% 30.15 in - WNW 4.5 mph - N/A   Clear
8:45 AM - - - N/A% - 6.2 mi WNW 6.7 mph - N/A   Overcast
9:15 AM 30.2 °F 25.5 °F 24.8 °F 80% 30.15 in - NW 4.5 mph - N/A   Clear
9:45 AM 32.0 °F 27.6 °F 24.8 °F 75% 30.15 in - NW 4.5 mph - N/A   Clear
10:15 AM 33.8 °F - 24.8 °F 70% 30.15 in - NW 2.2 mph - N/A   Clear
10:45 AM 33.8 °F 29.7 °F 24.8 °F 70% 30.15 in - WNW 4.5 mph - N/A   Clear
11:15 AM 33.8 °F 29.7 °F 24.8 °F 70% 30.15 in - West 4.5 mph - N/A   Clear
11:45 AM - - - N/A% - 6.2 mi WNW 6.7 mph - N/A   Overcast
12:15 PM 33.8 °F 29.7 °F 26.6 °F 75% 30.12 in - West 4.5 mph - N/A   Clear
12:45 PM 33.8 °F 29.7 °F 26.6 °F 75% 30.09 in - West 4.5 mph - N/A   Clear
1:15 PM 33.8 °F 29.7 °F 26.6 °F 75% 30.09 in - West 4.5 mph - N/A   Clear
1:45 PM 33.8 °F 29.7 °F 26.6 °F 75% 30.09 in - West 4.5 mph - N/A   Clear
2:15 PM 33.8 °F 29.7 °F 26.6 °F 75% 30.06 in - WSW 4.5 mph - N/A   Clear
2:45 PM - - - N/A% - 6.2 mi WNW 6.7 mph - N/A   Overcast
3:15 PM 33.8 °F 29.7 °F 26.6 °F 75% 30.04 in - WSW 4.5 mph - N/A   Clear
3:45 PM 33.8 °F 29.7 °F 26.6 °F 75% 30.04 in - WSW 4.5 mph - N/A   Clear
4:15 PM 33.8 °F 29.7 °F 26.6 °F 75% 30.04 in - SSW 4.5 mph - N/A   Clear
4:45 PM 33.8 °F 26.5 °F 26.6 °F 75% 30.01 in - WSW 8.9 mph - N/A   Clear
5:13 PM 33.8 °F 26.5 °F 28.4 °F 81% 30.01 in 6.2 mi West 8.9 mph - N/A Snow Light Snow
5:15 PM 32.0 °F 24.3 °F 28.4 °F 87% 30.01 in 6.2 mi West 8.9 mph - N/A Snow Light Snow
5:45 PM - - - N/A% - 5.0 mi West 6.7 mph - N/A   Unknown
6:15 PM 32.0 °F 24.3 °F 30.2 °F 93% 30.01 in 5.0 mi West 8.9 mph - N/A Snow Light Snow
6:45 PM 32.0 °F 24.3 °F 30.2 °F 93% 29.98 in 3.7 mi West 8.9 mph - N/A Snow Light Snow
7:10 PM 32.0 °F 24.3 °F 30.2 °F 93% 30.01 in 3.1 mi West 8.9 mph - N/A Snow Light Snow
7:15 PM 32.0 °F 25.7 °F 30.2 °F 93% 29.98 in 2.5 mi West 6.7 mph - N/A Snow Light Snow
7:45 PM 32.0 °F 25.7 °F 30.2 °F 93% 29.98 in 2.5 mi West 6.7 mph - N/A Snow Light Snow
8:15 PM 32.0 °F 24.3 °F 30.2 °F 93% 29.98 in 1.9 mi West 8.9 mph - N/A Snow Snow
8:45 PM - - - N/A% - 3.1 mi West 8.9 mph - N/A   Mostly Cloudy
9:15 PM 32.0 °F 25.7 °F 30.2 °F 93% 29.98 in 1.9 mi West 6.7 mph - N/A Snow Light Snow
9:32 PM 32.0 °F 25.7 °F 30.2 °F 93% 29.98 in 3.1 mi West 6.7 mph - N/A Snow Light Snow
9:45 PM 32.0 °F 25.7 °F 30.2 °F 93% 29.98 in 3.7 mi West 6.7 mph - N/A   Overcast
10:15 PM 32.0 °F - 30.2 °F 93% 29.98 in 3.7 mi WNW 2.2 mph - N/A   Overcast
10:45 PM 32.0 °F 27.6 °F 30.2 °F 93% 29.98 in 3.7 mi NW 4.5 mph - N/A   Overcast
11:15 PM 32.0 °F - 30.2 °F 93% 29.98 in 3.7 mi North 2.2 mph - N/A   Overcast
11:45 PM - - - N/A% - 5.0 mi North - - N/A   Overcast